Location: Unspecified
(41.9031°N, 12.4386°E)
Time: 02:54:11
(UTC+02:00)

ISS - Pass Details

Date: 06 July 2020
Orbit: 417 x 421 km, 51.6° (Epoch: 08 July)

Event Time Altitude Azimuth Distance (km) Brightness Sun altitude
Exits shadow 01:50:53 17° 68° (ENE) 1,145 -1.2 -24.9°
Drops below altitude 10° 01:51:46 10° 63° (ENE) 1,496 -0.5 -24.9°
Sets 01:53:54 0° 59° (ENE) 2,362 0.6 -24.8°
